Wetbulb
52.68 54.87 55.93 57.10 59.50 60.73 61.38 61.84 61.68 61.43 61.25 61.16 60.42 60.26 60.01 59.71 59.60 59.29 59.65 59.32 58.38 58.18 56.91 56.84 56.75 57.24 56.52 55.71 54.74 52.62 52.83 51.37 50.41 45.43 43.80 43.47 41.86 41.10 39.42 38.75 38.00 38.43 36.62
50.89 53.28 54.89 56.18 57.11 57.85 59.19 60.36 61.11 60.74 60.49 60.73 60.22 59.62 59.60 59.68 59.77 59.64 58.96 58.12 57.48 56.47 56.01 55.37 55.44 54.56 54.47 53.37 50.97 49.29 48.10 46.25 45.65 43.37 41.73 39.78 39.96 38.98 38.15 35.88 36.68 37.53 35.87
49.36 51.87 53.71 55.01 55.82 56.77 58.09 58.78 59.44 59.46 59.57 60.00 60.26 59.97 59.82 59.84 59.36 59.06 58.83 57.14 56.28 55.68 55.09 54.84 54.67 53.42 51.33 48.04 46.61 46.03 44.55 43.08 43.05 40.75 39.27 37.97 37.91 37.40 33.27 33.03 33.27 32.21 35.47
48.17 49.65 51.98 53.50 55.18 56.34 57.15 57.46 57.57 58.72 59.37 60.08 60.11 59.75 58.82 58.46 58.23 57.72 57.07 55.79 55.09 54.70 54.45 54.05 52.77 51.04 49.92 46.63 44.71 44.33 42.16 40.42 39.02 36.10 34.95 35.07 34.89 34.07 29.72 32.51 30.41 27.02 28.66
45.87 48.25 49.73 51.41 53.55 54.49 54.89 56.02 56.92 56.48 57.99 57.32 56.43 56.85 56.67 56.32 56.17 55.16 54.45 54.53 53.36 50.61 47.41 47.52 47.19 44.96 42.51 45.44 44.41 42.49 41.37 37.70 34.94 34.71 33.89 33.77 33.08 31.90 31.95 31.97 27.36 26.66 28.41
43.38 44.64 48.15 48.87 49.19 49.52 49.54 51.23 51.70 51.27 52.17 52.01 51.63 51.16 51.46 50.01 46.32 46.46 49.89 49.96 46.85 45.98 44.30 43.21 42.63 37.03 40.52 41.17 41.83 41.97 42.27 39.82 35.48 34.75 33.51 33.10 33.51 33.46 32.30 28.54 26.35 23.82 24.37
41.77 41.18 41.37 43.15 43.23 43.69 43.68 44.34 44.69 46.28 46.23 46.50 47.01 46.95 47.08 46.97 43.53 43.95 43.29 47.75 46.49 45.66 43.99 41.73 38.72 38.83 37.23 38.00 40.11 40.57 39.46 40.56 40.02 37.71 34.58 34.52 33.83 33.38 31.46 30.17 28.85 30.91 31.00
40.65 39.53 38.10 37.92 38.98 40.07 40.94 41.72 42.32 41.41 42.83 43.81 44.31 44.62 44.41 42.13 41.58 42.07 40.45 44.51 44.19 43.72 42.16 39.61 38.19 36.25 35.49 35.01 35.99 35.10 34.88 36.04 36.45 36.25 36.77 34.45 34.40 31.65 32.10 31.64 31.91 30.38 28.65
40.31 39.63 37.53 36.48 36.21 37.61 38.85 40.95 40.95 39.42 39.16 39.00 37.89 37.66 37.89 37.15 40.57 40.70 40.30 38.77 37.84 37.37 38.01 38.52 37.87 34.26 36.75 38.34 35.07 33.63 32.82 32.18 36.91 37.83 37.79 37.46 37.24 36.07 33.79 32.21 26.90 21.58 18.15
39.33 40.33 38.80 36.23 35.30 35.44 38.33 39.70 37.82 36.64 36.93 35.54 34.54 35.95 35.45 36.28 39.48 39.75 38.50 35.70 34.92 34.14 33.94 34.47 33.45 34.86 37.21 38.37 34.66 33.50 32.03 31.18 31.22 31.09 30.68 32.43 34.76 34.82 34.98 31.54 30.40 26.16 21.81
38.61 39.00 38.51 35.63 35.42 36.31 35.16 37.65 36.88 35.57 34.34 34.76 34.56 33.56 34.02 34.67 36.57 39.14 38.68 35.02 34.75 32.83 32.16 31.16 32.23 36.87 37.27 37.58 35.92 33.53 33.02 32.39 33.00 30.45 30.22 30.49 30.42 30.49 30.39 31.10 30.46 27.14 24.24
36.89 36.74 36.92 37.26 35.51 34.30 35.42 36.01 34.88 35.10 35.52 34.67 33.93 32.98 33.10 33.31 34.88 38.50 38.74 37.37 36.79 34.16 32.10 31.82 32.67 36.49 37.25 36.96 34.26 36.15 35.59 32.67 31.32 29.83 29.05 28.89 29.13 29.45 30.16 28.66 28.93 29.04 25.96
34.93 34.95 35.27 35.48 34.64 34.13 35.30 35.65 35.57 35.25 36.67 34.90 34.23 35.02 33.28 32.45 34.14 37.53 38.12 37.89 37.20 33.49 32.87 32.99 35.38 36.83 36.76 35.44 35.89 35.77 32.56 31.50 30.39 28.24 28.36 29.20 29.38 30.03 27.28 29.24 29.63 29.94 29.35
32.09 33.33 34.31 34.06 34.83 34.82 35.28 35.90 35.89 34.96 35.55 35.48 34.39 34.89 34.24 32.72 33.41 34.63 35.04 35.78 34.48 33.07 34.06 33.47 34.99 34.41 33.53 33.18 33.05 33.13 31.74 31.07 30.28 29.89 28.92 28.88 29.06 28.25 27.56 28.19 26.94 26.83 25.84
30.24 31.62 32.87 34.03 34.38 34.35 34.44 35.49 35.33 36.49 37.00 35.89 35.72 35.91 34.32 32.29 33.75 35.29 34.62 33.27 32.74 33.04 31.84 31.80 30.20 29.47 28.37 28.66 29.17 29.60 29.69 28.80 28.91 28.59 28.48 27.21 26.99 26.69 25.98 25.88 24.85 21.82 18.36
27.37 28.97 31.02 33.47 34.25 33.89 34.15 33.75 36.74 37.18 37.09 38.05 38.09 36.75 34.69 36.32 36.29 35.99 35.60 34.91 34.37 33.75 30.47 28.75 27.82 27.83 27.45 27.88 27.93 28.12 28.45 27.60 27.20 27.15 26.53 25.69 23.59 20.98 19.75 19.17 18.98 17.20 16.19
18.47 23.12 28.30 31.09 32.74 33.05 33.10 32.89 32.35 29.86 35.63 37.48 37.39 36.60 34.90 34.90 35.78 36.21 35.68 35.23 34.85 33.43 29.76 28.76 28.32 28.48 28.41 28.37 27.76 26.82 25.58 25.35 25.78 25.49 22.91 20.92 20.22 18.12 17.51 17.83 18.55 17.99 15.60
13.90 19.44 24.29 30.36 32.71 33.23 33.25 33.29 33.04 32.21 30.27 30.26 34.89 34.47 34.55 34.86 35.46 36.16 35.90 35.02 32.26 31.74 29.95 29.26 28.85 28.83 27.62 26.84 26.47 25.36 22.73 21.45 21.03 20.47 20.28 18.98 17.67 17.30 16.50 14.88 14.59 10.93 9.27
12.78 17.07 24.05 30.32 32.73 33.13 33.13 32.79 32.72 32.25 30.87 29.92 30.03 32.39 32.82 34.43 35.14 35.80 35.86 31.65 30.34 29.32 29.00 28.03 27.58 26.25 24.71 23.26 21.74 20.93 19.98 18.29 17.31 16.92 16.15 15.96 15.62 14.24 11.07 11.35 11.24 10.62 8.46
14.39 19.98 25.10 29.23 31.69 32.03 32.04 31.73 31.62 30.59 29.87 29.03 29.61 30.03 31.07 31.35 31.20 31.77 31.98 30.51 29.43 27.07 26.23 23.25 22.02 21.24 20.47 19.18 17.87 17.04 14.81 14.14 14.51 14.85 14.08 13.28 11.61 11.15 11.16 8.43 4.80 3.88 1.78
16.00 18.95 23.73 25.43 26.29 28.79 30.75 30.24 30.36 29.93 28.58 28.78 27.72 26.11 32.07 30.26 29.84 25.50 24.19 23.94 22.91 21.20 19.84 18.66 17.64 16.87 16.57 15.89 15.21 15.30 14.46 13.98 13.41 12.39 11.48 10.31 9.36 8.36 6.73 8.39 1.36 1.24 1.31
15.47 16.55 16.78 17.68 19.52 19.97 20.67 21.54 21.90 21.63 18.66 19.56 21.62 23.99 25.02 20.86 20.65 19.13 17.55 16.57 16.68 17.20 17.30 16.25 14.65 14.09 13.85 13.70 13.60 13.07 12.93 11.45 10.59 10.41 9.97 8.57 7.59 7.13 4.87 4.84 3.24 0.45 -2.48
13.43 13.56 13.57 13.67 14.44 15.14 15.66 16.41 16.96 17.07 15.60 14.67 14.73 14.65 14.95 14.56 14.60 13.72 11.97 11.39 11.32 11.08 12.89 13.43 11.94 10.60 11.07 11.54 12.67 12.83 11.40 10.63 10.18 9.77 8.22 6.32 6.06 5.69 4.26 1.91 3.86 -1.81 -3.21
10.00 10.35 10.82 11.87 12.50 12.11 11.83 11.65 12.04 12.10 11.95 11.62 11.56 11.33 11.18 11.12 10.79 9.89 9.55 9.40 9.11 8.23 9.09 10.13 10.21 9.14 8.04 7.86 7.70 7.04 8.65 8.31 8.27 7.50 7.05 6.13 5.06 4.96 4.01 3.77 2.66 1.22 0.25
7.32 7.48 7.82 7.92 8.05 8.85 10.13 10.28 10.42 10.42 10.15 10.05 9.70 9.42 9.42 9.59 9.20 8.70 8.39 8.56 8.35 7.79 7.35 7.73 8.15 8.77 7.58 6.65 5.74 5.34 5.91 8.09 4.58 4.37 3.34 3.57 3.20 3.27 3.60 2.31 0.12 0.31 -4.19
4.86 4.96 5.19 5.64 5.77 6.27 6.46 6.68 7.07 7.70 7.81 8.32 8.56 8.51 8.71 8.69 8.84 8.79 8.06 7.56 7.18 7.46 7.31 6.83 6.87 6.93 6.54 6.25 6.01 6.22 6.09 7.57 4.26 4.04 3.13 2.41 1.71 1.41 1.30 0.62 -0.27 -3.61 -3.84
MSLP
1008.92 1008.74 1008.68 1008.67 1008.53 1008.76 1009.02 1009.14 1009.19 1009.35 1009.61 1009.87 1010.27 1010.75 1011.19 1011.66 1012.09 1012.50 1012.69 1013.02 1013.36 1013.79 1014.17 1014.46 1014.78 1015.18 1015.41 1015.72 1016.04 1016.26 1016.59 1016.96 1017.10 1017.70 1018.11 1018.60 1019.04 1019.15 1019.24 1019.52 1019.67 1019.60 1020.10
1008.84 1008.60 1008.36 1008.10 1007.98 1008.02 1008.16 1008.28 1008.49 1008.67 1008.84 1009.08 1009.44 1009.90 1010.36 1010.81 1011.23 1011.48 1011.69 1012.07 1012.53 1012.96 1013.40 1013.83 1013.98 1014.46 1014.77 1015.14 1015.52 1015.80 1016.08 1016.48 1016.98 1017.48 1017.92 1018.56 1018.87 1019.24 1019.26 1019.59 1019.58 1019.39 1019.72
1008.85 1008.61 1008.17 1007.85 1007.83 1007.68 1007.52 1007.55 1007.68 1007.88 1008.11 1008.40 1008.77 1009.15 1009.50 1009.82 1010.14 1010.43 1010.78 1011.19 1011.60 1011.99 1012.40 1012.80 1013.14 1013.63 1014.08 1014.49 1014.83 1015.32 1015.77 1016.18 1016.56 1017.05 1017.46 1018.21 1018.66 1018.79 1019.36 1019.64 1019.80 1019.74 1019.55
1008.67 1008.49 1008.12 1007.78 1007.56 1007.24 1007.16 1007.30 1007.36 1007.42 1007.61 1007.59 1007.67 1008.05 1008.47 1008.92 1009.37 1009.70 1010.04 1010.35 1010.74 1011.07 1011.53 1011.92 1012.33 1012.77 1013.23 1013.81 1014.30 1014.65 1015.28 1015.80 1016.32 1016.93 1017.16 1017.98 1018.68 1019.08 1019.44 1020.09 1019.85 1019.88 1019.66
1008.39 1008.45 1008.05 1007.64 1007.18 1006.99 1006.76 1006.65 1006.70 1006.84 1006.98 1007.19 1007.52 1007.74 1008.07 1008.46 1008.71 1009.06 1009.40 1009.71 1010.23 1010.82 1011.18 1011.50 1011.77 1012.11 1012.56 1013.01 1013.81 1014.34 1014.90 1015.52 1016.19 1016.73 1017.20 1017.92 1018.57 1019.12 1019.51 1019.72 1020.20 1020.27 1019.57
1008.23 1008.26 1008.01 1007.69 1007.28 1006.97 1006.90 1006.69 1006.30 1006.49 1006.69 1006.92 1007.21 1007.45 1007.75 1007.99 1008.24 1008.50 1008.92 1009.39 1009.81 1010.28 1010.88 1011.49 1011.91 1012.36 1012.62 1012.91 1013.52 1013.89 1014.39 1014.90 1015.80 1016.10 1016.48 1017.28 1018.10 1018.46 1018.94 1019.46 1019.94 1020.70 1020.23
1008.18 1008.06 1007.89 1007.50 1007.24 1006.92 1006.85 1007.01 1006.73 1006.40 1006.51 1006.67 1006.88 1007.09 1007.19 1007.34 1007.62 1007.99 1008.45 1008.92 1009.40 1009.83 1010.41 1011.14 1011.80 1012.20 1012.68 1013.22 1013.70 1014.05 1014.45 1014.91 1015.13 1015.58 1015.65 1016.36 1017.61 1017.80 1018.45 1019.45 1019.78 1019.95 1020.05
1008.29 1007.80 1007.50 1007.30 1007.13 1007.04 1006.90 1006.77 1006.86 1006.88 1006.77 1006.71 1006.68 1006.76 1007.06 1007.37 1007.64 1008.03 1008.37 1008.71 1009.28 1009.66 1010.06 1010.70 1011.30 1012.06 1012.60 1013.14 1013.76 1014.30 1014.67 1014.95 1015.25 1015.48 1015.25 1015.89 1017.02 1017.94 1018.23 1018.63 1019.32 1019.69 1019.84
1008.31 1007.67 1007.14 1006.94 1006.76 1006.76 1006.75 1006.52 1006.46 1006.65 1006.65 1006.78 1006.94 1007.19 1007.34 1007.69 1007.89 1008.06 1008.42 1008.77 1009.29 1009.72 1010.03 1010.50 1010.95 1011.70 1012.42 1012.91 1013.49 1014.23 1014.94 1015.23 1015.41 1015.81 1015.72 1015.87 1016.95 1017.65 1018.10 1018.48 1018.96 1019.65 1019.80
1008.93 1007.89 1007.05 1006.50 1006.27 1006.14 1006.00 1006.01 1006.09 1006.04 1006.01 1006.33 1006.53 1006.62 1006.90 1007.32 1007.58 1007.95 1008.34 1008.93 1009.56 1009.90 1010.21 1010.44 1010.88 1011.43 1012.07 1012.64 1013.12 1013.87 1014.60 1015.19 1015.50 1016.15 1016.50 1016.82 1017.09 1017.63 1017.94 1018.30 1018.61 1019.14 1019.35
1008.98 1007.99 1006.91 1006.00 1005.55 1005.35 1005.38 1005.57 1005.66 1005.69 1005.94 1005.90 1006.01 1006.40 1006.72 1006.99 1007.32 1007.54 1008.06 1008.61 1009.10 1010.07 1010.26 1010.54 1010.75 1011.20 1011.76 1012.28 1012.85 1013.39 1013.92 1014.74 1015.44 1016.05 1016.26 1017.21 1017.70 1018.02 1018.08 1018.22 1018.27 1018.60 1018.91
1009.09 1008.01 1006.86 1005.86 1005.12 1004.88 1005.09 1005.17 1005.18 1005.51 1005.63 1005.77 1006.09 1006.16 1006.27 1006.49 1006.74 1006.90 1007.24 1007.73 1008.46 1009.34 1010.30 1010.57 1010.73 1011.00 1011.63 1012.15 1012.70 1013.17 1013.63 1014.43 1015.09 1015.76 1016.18 1017.09 1017.40 1017.87 1018.01 1018.13 1018.35 1018.41 1018.60
1008.67 1007.69 1006.64 1005.58 1004.95 1004.73 1004.71 1004.67 1004.72 1004.85 1004.99 1004.93 1005.22 1005.41 1005.54 1005.90 1006.30 1006.44 1006.67 1007.04 1007.64 1008.61 1009.27 1010.07 1010.52 1010.98 1011.49 1012.22 1012.57 1012.96 1013.65 1014.24 1014.84 1015.40 1015.90 1016.77 1017.11 1017.43 1017.87 1017.89 1017.96 1017.96 1018.15
1008.48 1007.13 1006.06 1005.27 1004.59 1004.21 1004.10 1004.13 1004.05 1003.55 1003.60 1003.98 1004.11 1004.26 1004.93 1005.39 1005.54 1005.94 1006.31 1006.71 1007.34 1008.23 1009.02 1009.82 1010.25 1010.92 1011.43 1012.06 1012.37 1012.92 1013.38 1013.84 1014.35 1014.76 1015.39 1016.21 1016.69 1017.27 1017.74 1017.57 1017.82 1017.95 1018.21
1008.39 1006.93 1005.66 1004.76 1004.03 1003.49 1003.01 1002.85 1002.80 1002.34 1002.06 1002.05 1002.46 1003.18 1003.48 1004.20 1004.58 1005.28 1005.78 1006.11 1006.65 1007.42 1008.70 1009.68 1010.38 1010.91 1011.49 1012.14 1012.65 1012.97 1013.32 1013.84 1014.24 1014.68 1015.34 1015.94 1016.51 1017.05 1017.54 1017.69 1017.86 1018.16 1018.39
1008.40 1006.94 1005.67 1004.44 1003.38 1002.90 1002.37 1001.81 1001.69 1001.70 1001.65 1001.45 1001.41 1001.78 1002.84 1003.23 1003.85 1004.97 1005.99 1006.45 1006.69 1007.16 1008.00 1008.90 1009.98 1010.65 1011.04 1011.69 1012.28 1012.80 1013.32 1013.86 1014.22 1014.57 1015.19 1015.73 1016.47 1017.04 1017.56 1017.89 1017.98 1018.47 1018.79
1009.23 1007.32 1005.60 1004.24 1002.80 1002.13 1001.74 1001.26 1001.00 1001.29 1001.14 1000.78 1000.89 1001.33 1001.61 1002.51 1003.35 1004.25 1005.29 1006.53 1007.08 1007.26 1007.22 1008.10 1009.06 1009.91 1010.52 1011.25 1011.98 1012.48 1013.20 1013.92 1014.39 1014.84 1015.25 1015.91 1016.56 1017.05 1017.64 1018.12 1018.37 1018.65 1019.10
1008.86 1007.05 1005.27 1003.31 1002.20 1001.24 1000.82 1000.48 1000.51 1000.61 1000.84 1000.84 1000.39 1000.34 1001.10 1001.22 1002.18 1003.15 1003.84 1005.46 1007.17 1007.58 1007.44 1007.69 1008.44 1009.37 1010.20 1011.04 1012.04 1012.70 1013.46 1014.19 1014.70 1015.01 1015.49 1016.15 1016.72 1017.28 1017.86 1018.28 1018.73 1019.12 1019.42
1008.25 1006.34 1004.42 1002.62 1001.41 1000.56 1000.15 999.88 999.88 1000.08 1000.17 1000.40 1000.49 1000.32 1000.57 1001.18 1001.03 1001.63 1002.76 1003.74 1005.04 1006.33 1007.66 1007.97 1008.59 1009.47 1010.26 1011.13 1012.18 1012.90 1013.50 1014.11 1014.57 1015.13 1015.87 1016.41 1016.89 1017.52 1018.16 1018.62 1019.05 1019.38 1019.69
1007.26 1005.46 1003.82 1002.17 1000.76 1000.04 999.64 999.28 999.36 999.66 999.80 999.96 999.87 999.97 1000.48 1000.92 1001.10 1001.71 1002.40 1003.30 1004.48 1005.56 1007.27 1008.06 1008.86 1009.52 1010.37 1011.39 1012.47 1013.10 1013.76 1014.22 1014.75 1015.35 1015.99 1016.55 1017.20 1017.74 1018.34 1018.84 1019.38 1019.79 1020.06
1006.71 1005.11 1003.48 1002.15 1001.06 999.99 999.58 999.21 999.48 999.61 999.86 999.95 999.94 1000.18 999.85 999.88 1000.29 1001.56 1002.57 1003.08 1004.16 1005.74 1007.30 1008.19 1009.21 1009.77 1010.55 1011.60 1012.44 1013.12 1013.76 1014.27 1014.91 1015.58 1016.21 1016.76 1017.34 1017.91 1018.43 1018.93 1019.62 1019.94 1020.19
1007.31 1005.84 1004.42 1003.33 1002.13 1001.33 1000.79 1000.54 1000.63 1000.71 1001.03 1001.27 1001.30 1001.41 1001.35 1001.55 1002.01 1002.71 1003.67 1004.76 1005.71 1006.72 1007.62 1008.43 1009.16 1009.76 1010.50 1011.31 1012.07 1012.95 1013.62 1014.24 1015.07 1015.69 1016.29 1016.83 1017.30 1017.86 1018.49 1019.04 1019.56 1019.92 1020.19
1008.81 1007.15 1006.02 1004.77 1003.78 1003.13 1002.81 1002.66 1002.53 1002.54 1002.90 1003.17 1003.16 1003.04 1003.27 1003.79 1004.13 1004.71 1005.66 1006.71 1007.55 1008.42 1008.89 1009.22 1009.68 1010.27 1010.85 1011.50 1011.94 1012.43 1013.13 1013.90 1014.48 1015.15 1015.95 1016.76 1017.35 1017.90 1018.39 1018.87 1019.25 1019.52 1019.76
1010.29 1008.70 1007.35 1006.51 1005.84 1005.57 1005.38 1005.12 1004.88 1004.81 1004.80 1004.83 1004.89 1004.98 1005.17 1005.66 1006.12 1006.79 1007.54 1008.14 1008.88 1009.47 1009.77 1009.93 1010.26 1010.52 1011.19 1011.72 1012.30 1012.74 1013.13 1013.72 1014.27 1014.85 1015.46 1016.39 1017.18 1017.75 1018.23 1018.57 1018.84 1019.15 1019.32
1011.80 1010.50 1009.92 1009.64 1008.62 1008.13 1007.58 1007.07 1006.73 1006.71 1006.60 1006.67 1007.12 1007.00 1007.17 1007.62 1007.94 1008.36 1008.75 1009.17 1009.63 1009.92 1010.30 1010.49 1010.76 1011.01 1011.47 1011.98 1012.52 1013.01 1013.37 1013.75 1014.31 1014.85 1015.60 1016.17 1016.78 1017.40 1017.83 1018.14 1018.52 1018.72 1019.07
1013.98 1013.26 1012.47 1011.48 1010.89 1010.22 1009.52 1008.80 1008.71 1008.77 1008.63 1008.60 1008.83 1008.81 1008.92 1009.09 1009.26 1009.54 1009.86 1010.12 1010.26 1010.39 1010.56 1010.90 1011.15 1011.37 1011.80 1012.26 1012.65 1013.08 1013.51 1013.86 1014.32 1014.71 1015.28 1015.96 1016.49 1017.01 1017.42 1017.63 1017.95 1018.41 1018.70
Wind_Speed
7 7 7 7 10 11 12 13 12 11 11 12 11 12 13 13 12 12 14 12 13 10 8 11 11 10 7 7 5 4 7 6 8 1 1 2 3 3 3 3 4 3 4
7 7 7 7 7 8 10 11 11 10 8 10 11 11 12 12 12 14 14 11 11 11 10 10 12 8 10 7 6 8 5 4 4 5 3 3 4 3 2 3 4 4 4
7 7 7 8 7 7 9 9 9 9 9 9 10 12 14 14 13 12 12 11 12 11 11 12 13 10 9 5 5 5 4 3 3 3 3 2 2 2 1 2 2 2 3
7 7 8 7 7 7 7 8 7 8 9 10 12 12 12 12 11 11 11 11 11 11 12 12 10 11 10 9 7 8 5 5 4 3 2 2 2 1 2 1 2 1 3
7 7 8 8 7 7 8 8 8 8 9 7 8 9 9 10 9 10 10 10 11 9 6 7 7 8 10 9 7 7 7 4 3 3 3 2 2 2 3 2 0 2 3
7 8 7 7 7 8 7 7 7 7 7 7 7 7 8 5 10 13 11 9 8 9 9 6 5 5 7 9 8 9 9 8 5 3 4 3 4 3 3 3 2 2 2
7 8 8 8 8 8 7 6 7 8 6 8 8 8 10 9 14 14 14 8 9 9 8 8 6 4 6 6 7 8 8 8 5 5 5 5 4 5 5 3 2 2 1
8 9 8 8 8 7 7 8 8 4 7 8 9 9 7 6 10 11 12 7 6 7 8 8 8 7 7 8 8 6 5 5 4 2 5 6 5 5 5 5 3 2 3
16 14 10 8 8 7 9 10 7 6 6 6 4 6 7 6 11 11 10 6 6 6 5 6 8 8 11 14 10 8 6 4 6 10 11 12 10 10 8 4 3 2 2
14 18 13 8 8 9 11 10 5 4 5 4 4 6 7 7 13 12 8 4 5 4 3 5 9 8 15 15 10 10 9 6 7 6 5 7 6 7 7 2 3 2 2
16 17 17 9 10 10 8 8 6 4 4 6 7 5 6 6 9 14 13 7 6 5 5 4 4 14 15 15 12 8 6 10 10 7 6 4 3 2 2 3 3 3 2
18 17 17 16 9 5 9 7 6 7 9 8 6 5 5 7 10 17 17 12 13 8 7 5 5 15 16 15 11 14 20 13 7 6 6 4 5 3 3 3 3 1 1
21 19 17 13 9 7 9 10 8 10 11 9 9 9 7 6 7 15 17 15 16 7 7 11 14 17 18 14 17 20 13 7 7 6 5 4 3 4 4 3 3 3 3
22 21 17 12 11 9 8 9 11 10 11 10 10 10 8 8 8 8 8 9 14 10 14 10 11 11 11 9 9 10 6 6 6 6 6 4 4 3 1 2 2 1 1
22 18 17 12 12 10 10 10 12 13 13 12 12 10 11 10 10 12 12 10 10 12 12 9 7 7 7 6 5 6 6 5 6 4 5 4 4 4 2 2 2 1 2
19 16 14 14 12 10 9 8 15 18 17 18 15 13 7 10 17 19 18 18 21 27 11 10 9 8 9 9 8 8 6 7 6 5 4 4 4 3 3 1 2 2 2
19 18 14 15 13 12 10 8 9 3 11 18 17 17 18 14 21 21 22 20 23 22 7 10 9 9 9 8 8 7 6 5 5 5 4 4 4 3 3 1 1 2 1
17 21 15 14 13 11 9 9 8 9 10 6 13 15 20 23 26 24 27 22 13 10 6 9 9 8 8 8 7 7 6 5 4 4 4 4 4 3 2 2 2 2 2
15 13 13 13 11 11 9 9 9 9 9 7 5 11 16 24 26 27 28 11 12 9 6 7 7 7 7 7 6 6 7 6 5 5 4 4 3 3 2 2 2 2 2
13 19 15 12 10 9 8 8 8 9 9 9 10 10 11 14 13 13 12 10 9 8 7 7 7 7 8 7 6 6 6 6 5 4 4 4 4 3 3 3 2 2 2
11 11 14 7 6 5 5 5 5 6 6 7 4 4 18 13 13 10 9 9 9 9 8 8 7 7 7 7 6 6 6 5 5 5 4 4 4 3 3 3 3 3 3
10 9 8 7 6 6 6 6 5 5 5 4 5 6 13 7 7 8 8 7 7 6 6 7 7 7 7 7 7 7 6 6 5 5 5 4 4 4 3 3 3 2 2
11 11 10 9 10 12 9 9 7 7 6 6 6 6 8 7 7 7 8 6 6 5 4 6 7 6 5 5 5 6 7 7 6 6 6 5 4 4 3 3 3 3 3
12 13 14 12 11 11 10 9 9 12 9 8 8 8 7 7 7 8 7 6 6 4 3 4 4 7 6 5 4 4 4 5 5 5 7 6 5 5 3 3 3 4 3
13 13 13 12 12 11 10 11 10 10 9 9 7 8 8 7 6 6 5 4 4 4 4 3 3 5 7 7 6 6 7 9 6 7 5 6 6 6 4 3 3 3 3
12 12 11 10 11 11 10 10 11 10 10 8 7 6 6 5 5 4 3 3 2 2 3 2 3 4 5 5 6 7 9 10 8 9 6 6 6 5 4 5 6 3 3
Wind_Direction
271 254 237 236 227 228 230 231 230 220 212 204 200 200 204 207 207 206 214 214 213 210 200 207 218 219 221 220 215 199 215 211 241 132 105 173 183 195 189 224 238 220 244
267 262 251 243 226 217 229 230 228 225 210 200 196 196 200 205 205 211 217 210 208 205 200 201 217 218 219 206 195 204 201 176 175 197 166 175 193 210 221 214 228 214 226
262 264 259 246 241 236 230 226 216 210 205 200 196 201 206 213 216 214 211 198 196 199 205 214 216 203 208 185 181 187 179 164 169 175 173 159 177 159 258 291 277 292 253
252 255 258 254 246 232 227 229 227 222 219 210 208 207 204 205 207 203 198 194 198 206 211 209 202 196 198 185 182 186 169 175 164 161 147 150 144 91 99 242 287 295 274
254 253 252 253 247 247 234 221 216 218 225 211 201 207 203 204 208 200 198 198 199 196 188 187 188 188 181 176 177 179 173 159 151 155 140 123 159 135 197 164 76 275 291
248 254 258 258 246 245 255 258 218 211 210 201 206 195 193 198 190 191 187 191 180 181 182 183 156 163 166 162 168 167 179 171 175 152 144 158 184 175 146 144 151 5 336
269 264 257 255 247 242 243 239 241 214 190 204 198 192 204 201 195 195 183 184 182 182 175 169 161 170 157 158 163 152 132 123 163 164 150 158 168 167 124 136 185 192 254
285 269 257 247 247 242 238 234 240 235 225 218 216 213 206 208 182 184 177 164 168 175 171 171 167 162 170 154 149 143 145 153 141 137 133 121 116 120 133 154 135 141 264
301 289 271 242 244 230 234 234 217 211 211 210 205 186 179 175 180 177 162 154 157 165 155 161 165 162 169 160 147 145 135 111 95 94 94 109 125 135 137 132 154 106 302
304 301 287 259 234 227 230 230 211 200 207 175 178 181 176 180 188 185 164 140 153 153 146 151 162 158 163 161 154 155 154 152 133 110 79 69 97 133 136 118 150 172 173
309 307 299 265 241 231 226 218 221 202 175 184 182 175 175 178 184 183 174 166 165 165 166 161 155 162 166 159 156 157 150 135 135 124 119 119 96 102 135 165 178 157 167
308 303 299 291 257 218 219 222 200 198 208 203 195 190 192 184 191 188 184 173 164 164 178 165 160 159 161 157 144 147 141 135 134 133 128 145 153 171 188 120 145 180 199
307 300 295 287 264 235 226 227 215 207 219 208 201 208 199 187 193 189 184 178 170 149 152 162 161 159 154 151 152 149 140 138 143 145 153 155 154 134 151 168 183 184 210
301 300 298 281 266 244 233 233 229 211 209 212 209 207 203 195 189 183 184 169 158 145 147 149 155 141 132 135 140 142 146 146 161 151 140 140 135 138 159 140 140 141 174
303 299 295 283 270 257 234 229 233 232 214 209 212 211 191 196 202 187 178 168 158 151 137 137 140 141 138 141 142 145 137 133 145 139 145 135 141 152 162 129 130 135 150
296 298 296 291 275 261 251 244 236 240 223 223 205 192 199 195 177 176 175 170 160 153 148 154 161 164 163 163 164 160 154 151 147 147 145 141 148 146 159 189 138 147 171
297 294 288 283 279 266 251 238 240 272 236 213 198 187 176 172 172 172 168 169 167 160 166 162 165 169 165 161 157 154 147 135 134 156 129 119 113 105 120 133 123 118 88
288 285 282 276 271 261 248 241 230 227 218 212 191 175 180 170 172 171 163 156 173 185 174 163 162 156 152 148 151 145 130 128 124 118 112 114 107 119 107 90 72 106 96
288 283 279 274 266 254 243 234 229 223 215 196 173 180 178 175 171 168 169 167 169 165 165 148 140 138 135 125 129 133 141 141 133 124 127 130 126 123 111 111 108 105 106
289 285 289 289 262 252 241 233 228 216 205 194 191 184 166 162 169 172 168 159 157 140 142 133 127 128 129 130 136 135 128 128 134 130 135 128 121 126 144 144 147 138 159
303 303 305 295 315 311 260 236 230 214 205 196 164 189 175 168 163 148 140 132 129 125 132 129 131 125 123 129 133 135 139 134 134 131 137 139 142 143 135 138 149 159 156
331 329 338 341 352 14 18 28 29 42 51 82 86 74 93 81 98 96 89 85 87 102 119 132 133 131 135 140 142 142 141 143 147 147 148 147 151 149 149 158 160 160 163
349 0 8 12 17 19 24 27 36 46 53 48 54 56 53 56 62 72 80 81 82 82 91 115 122 121 115 124 125 145 153 160 159 155 151 156 161 167 168 166 175 170 162
1 10 15 19 24 29 29 32 36 42 45 43 42 46 54 58 62 69 76 82 84 85 76 94 116 128 134 132 131 121 117 125 134 144 143 154 165 172 171 177 184 183 170
6 13 18 13 21 21 23 30 34 36 42 44 41 42 43 43 51 60 67 80 105 114 120 111 119 138 147 143 146 150 154 157 146 146 147 153 167 179 184 178 173 171 155
7 9 12 16 16 17 21 28 30 26 29 32 34 42 46 50 55 63 65 64 70 80 105 129 145 145 155 161 163 163 171 176 170 171 159 166 175 187 190 193 197 169 168